Year,Month,Day,Hour,Minute,Value (Times are PST for temperature in C)
2023,05,15,00,00,22.80
2023,05,15,00,01,22.80
2023,05,15,00,02,22.70
2023,05,15,00,03,22.70
2023,05,15,00,04,22.70
2023,05,15,00,05,22.70
2023,05,15,00,06,22.70
2023,05,15,00,07,22.70
2023,05,15,00,08,22.70
2023,05,15,00,09,22.70
2023,05,15,00,10,22.60
2023,05,15,00,11,22.60
2023,05,15,00,12,22.50
2023,05,15,00,13,22.40
2023,05,15,00,14,22.40
2023,05,15,00,15,22.30
2023,05,15,00,16,22.30
2023,05,15,00,17,22.30
2023,05,15,00,18,22.30
2023,05,15,00,19,22.30
2023,05,15,00,20,22.30
2023,05,15,00,21,22.20
2023,05,15,00,22,22.20
2023,05,15,00,23,22.20
2023,05,15,00,24,22.20
2023,05,15,00,25,22.20
2023,05,15,00,26,22.20
2023,05,15,00,27,22.20
2023,05,15,00,28,22.20
2023,05,15,00,29,22.20
2023,05,15,00,30,22.10
2023,05,15,00,31,22.20
2023,05,15,00,32,22.20
2023,05,15,00,33,22.30
2023,05,15,00,34,22.30
2023,05,15,00,35,22.30
2023,05,15,00,36,22.30
2023,05,15,00,37,22.30
2023,05,15,00,38,22.30
2023,05,15,00,39,22.10
2023,05,15,00,40,22.10
2023,05,15,00,41,22.00
2023,05,15,00,42,22.00
2023,05,15,00,43,21.90
2023,05,15,00,44,21.90
2023,05,15,00,45,21.90
2023,05,15,00,46,21.90
2023,05,15,00,47,21.80
2023,05,15,00,48,21.70
2023,05,15,00,49,21.60
2023,05,15,00,50,21.50
2023,05,15,00,51,21.40
2023,05,15,00,52,21.30
2023,05,15,00,53,21.30
2023,05,15,00,54,21.20
2023,05,15,00,55,21.20
2023,05,15,00,56,21.20
2023,05,15,00,57,21.10
2023,05,15,00,58,21.10
2023,05,15,00,59,21.10
2023,05,15,01,00,21.00
2023,05,15,01,01,20.90
2023,05,15,01,02,20.90
2023,05,15,01,03,20.80
2023,05,15,01,04,20.80
2023,05,15,01,05,20.70
2023,05,15,01,06,20.70
2023,05,15,01,07,20.60
2023,05,15,01,08,20.60
2023,05,15,01,09,20.50
2023,05,15,01,10,20.40
2023,05,15,01,11,20.30
2023,05,15,01,12,20.30
2023,05,15,01,13,20.30
2023,05,15,01,14,20.30
2023,05,15,01,15,20.30
2023,05,15,01,16,20.30
2023,05,15,01,17,20.30
2023,05,15,01,18,20.40
2023,05,15,01,19,20.40
2023,05,15,01,20,20.40
2023,05,15,01,21,20.40
2023,05,15,01,22,20.50
2023,05,15,01,23,20.60
2023,05,15,01,24,20.60
2023,05,15,01,25,20.60
2023,05,15,01,26,20.60
2023,05,15,01,27,20.50
2023,05,15,01,28,20.40
2023,05,15,01,29,20.40
2023,05,15,01,30,20.30
2023,05,15,01,31,20.30
2023,05,15,01,32,20.20
2023,05,15,01,33,20.10
2023,05,15,01,34,20.00
2023,05,15,01,35,19.90
2023,05,15,01,36,19.90
2023,05,15,01,37,19.80
2023,05,15,01,38,19.80
2023,05,15,01,39,19.70
2023,05,15,01,40,19.80
2023,05,15,01,41,19.80
2023,05,15,01,42,19.90
2023,05,15,01,43,20.00
2023,05,15,01,44,20.10
2023,05,15,01,45,20.20
2023,05,15,01,46,20.20
2023,05,15,01,47,20.30
2023,05,15,01,48,20.30
2023,05,15,01,49,20.20
2023,05,15,01,50,20.20
2023,05,15,01,51,20.10
2023,05,15,01,52,20.00
2023,05,15,01,53,20.00
2023,05,15,01,54,20.10
2023,05,15,01,55,20.10
2023,05,15,01,56,20.10
2023,05,15,01,57,20.10
2023,05,15,01,58,20.10
2023,05,15,01,59,20.10
2023,05,15,02,00,20.20
2023,05,15,02,01,20.30
2023,05,15,02,02,20.30
2023,05,15,02,03,20.30
2023,05,15,02,04,20.30
2023,05,15,02,05,20.40
2023,05,15,02,06,20.40
2023,05,15,02,07,20.50
2023,05,15,02,08,20.50
2023,05,15,02,09,20.40
2023,05,15,02,10,20.40
2023,05,15,02,11,20.30
2023,05,15,02,12,20.30
2023,05,15,02,13,20.20
2023,05,15,02,14,20.10
2023,05,15,02,15,20.10
2023,05,15,02,16,20.00
2023,05,15,02,17,19.90
2023,05,15,02,18,19.80
2023,05,15,02,19,19.70
2023,05,15,02,20,19.70
2023,05,15,02,21,19.60
2023,05,15,02,22,19.50
2023,05,15,02,23,19.40
2023,05,15,02,24,19.40
2023,05,15,02,25,19.30
2023,05,15,02,26,19.40
2023,05,15,02,27,19.40
2023,05,15,02,28,19.40
2023,05,15,02,29,19.50
2023,05,15,02,30,19.50
2023,05,15,02,31,19.60
2023,05,15,02,32,19.60
2023,05,15,02,33,19.70
2023,05,15,02,34,19.70
2023,05,15,02,35,19.70
2023,05,15,02,36,19.60
2023,05,15,02,37,19.60
2023,05,15,02,38,19.50
2023,05,15,02,39,19.40
2023,05,15,02,40,19.40
2023,05,15,02,41,19.40
2023,05,15,02,42,19.30
2023,05,15,02,43,19.30
2023,05,15,02,44,19.30
2023,05,15,02,45,19.30
2023,05,15,02,46,19.20
2023,05,15,02,47,19.20
2023,05,15,02,48,19.20
2023,05,15,02,49,19.20
2023,05,15,02,50,19.10
2023,05,15,02,51,19.10
2023,05,15,02,52,19.00
2023,05,15,02,53,19.00
2023,05,15,02,54,18.90
2023,05,15,02,55,18.90
2023,05,15,02,56,18.80
2023,05,15,02,57,18.80
2023,05,15,02,58,18.80
2023,05,15,02,59,18.70
2023,05,15,03,00,18.70
2023,05,15,03,01,18.70
2023,05,15,03,02,18.60
2023,05,15,03,03,18.60
2023,05,15,03,04,18.60
2023,05,15,03,05,18.60
2023,05,15,03,06,18.60
2023,05,15,03,07,18.60
2023,05,15,03,08,18.50
2023,05,15,03,09,18.50
2023,05,15,03,10,18.40
2023,05,15,03,11,18.40
2023,05,15,03,12,18.50
2023,05,15,03,13,18.50
2023,05,15,03,14,18.60
2023,05,15,03,15,18.80
2023,05,15,03,16,18.90
2023,05,15,03,17,19.10
2023,05,15,03,18,19.20
2023,05,15,03,19,19.20
2023,05,15,03,20,19.20
2023,05,15,03,21,19.30
2023,05,15,03,22,19.30
2023,05,15,03,23,19.40
2023,05,15,03,24,19.40
2023,05,15,03,25,19.40
2023,05,15,03,26,19.40
2023,05,15,03,27,19.40
2023,05,15,03,28,19.40
2023,05,15,03,29,19.40
2023,05,15,03,30,19.40
2023,05,15,03,31,19.30
2023,05,15,03,32,19.20
2023,05,15,03,33,19.20
2023,05,15,03,34,19.20
2023,05,15,03,35,19.20
2023,05,15,03,36,19.20
2023,05,15,03,37,19.10
2023,05,15,03,38,19.10
2023,05,15,03,39,19.00
2023,05,15,03,40,19.00
2023,05,15,03,41,18.90
2023,05,15,03,42,18.90
2023,05,15,03,43,18.90
2023,05,15,03,44,18.80
2023,05,15,03,45,18.80
2023,05,15,03,46,18.80
2023,05,15,03,47,18.70
2023,05,15,03,48,18.70
2023,05,15,03,49,18.60
2023,05,15,03,50,18.70
2023,05,15,03,51,18.60
2023,05,15,03,52,18.60
2023,05,15,03,53,18.60
2023,05,15,03,54,18.50
2023,05,15,03,55,18.50
2023,05,15,03,56,18.40
2023,05,15,03,57,18.40
2023,05,15,03,58,18.40
2023,05,15,03,59,18.40
2023,05,15,04,00,18.40
2023,05,15,04,01,18.40
2023,05,15,04,02,18.40
2023,05,15,04,03,18.30
2023,05,15,04,04,18.30
2023,05,15,04,05,18.30
2023,05,15,04,06,18.30
2023,05,15,04,07,18.20
2023,05,15,04,08,18.20
2023,05,15,04,09,18.10
2023,05,15,04,10,18.00
2023,05,15,04,11,17.90
2023,05,15,04,12,17.90
2023,05,15,04,13,17.90
2023,05,15,04,14,17.90
2023,05,15,04,15,17.90
2023,05,15,04,16,17.80
2023,05,15,04,17,17.80
2023,05,15,04,18,17.70
2023,05,15,04,19,17.70
2023,05,15,04,20,17.60
2023,05,15,04,21,17.60
2023,05,15,04,22,17.50
2023,05,15,04,23,17.50
2023,05,15,04,24,17.40
2023,05,15,04,25,17.40
2023,05,15,04,26,17.40
2023,05,15,04,27,17.30
2023,05,15,04,28,17.30
2023,05,15,04,29,17.30
2023,05,15,04,30,17.30
2023,05,15,04,31,17.30
2023,05,15,04,32,17.30
2023,05,15,04,33,17.30
2023,05,15,04,34,17.30
2023,05,15,04,35,17.30
2023,05,15,04,36,17.30
2023,05,15,04,37,17.30
2023,05,15,04,38,17.30
2023,05,15,04,39,17.30
2023,05,15,04,40,17.40
2023,05,15,04,41,17.40
2023,05,15,04,42,17.40
2023,05,15,04,43,17.50
2023,05,15,04,44,17.50
2023,05,15,04,45,17.60
2023,05,15,04,46,17.70
2023,05,15,04,47,17.80
2023,05,15,04,48,17.90
2023,05,15,04,49,17.90
2023,05,15,04,50,17.90
2023,05,15,04,51,17.90
2023,05,15,04,52,17.90
2023,05,15,04,53,17.90
2023,05,15,04,54,17.90
2023,05,15,04,55,18.00
2023,05,15,04,56,18.00
2023,05,15,04,57,18.00
2023,05,15,04,58,18.10
2023,05,15,04,59,18.10
2023,05,15,05,00,18.10
2023,05,15,05,01,18.20
2023,05,15,05,02,18.20
2023,05,15,05,03,18.20
2023,05,15,05,04,18.20
2023,05,15,05,05,18.20
2023,05,15,05,06,18.20
2023,05,15,05,07,18.20
2023,05,15,05,08,18.30
2023,05,15,05,09,18.30
2023,05,15,05,10,18.30
2023,05,15,05,11,18.40
2023,05,15,05,12,18.50
2023,05,15,05,13,18.50
2023,05,15,05,14,18.60
2023,05,15,05,15,18.60
2023,05,15,05,16,18.60
2023,05,15,05,17,18.60
2023,05,15,05,18,18.70
2023,05,15,05,19,18.60
2023,05,15,05,20,18.60
2023,05,15,05,21,18.60
2023,05,15,05,22,18.60
2023,05,15,05,23,18.60
2023,05,15,05,24,18.60
2023,05,15,05,25,18.60
2023,05,15,05,26,18.60
2023,05,15,05,27,18.60
2023,05,15,05,28,18.50
2023,05,15,05,29,18.50
2023,05,15,05,30,18.50
2023,05,15,05,31,18.50
2023,05,15,05,32,18.40
2023,05,15,05,33,18.40
2023,05,15,05,34,18.40
2023,05,15,05,35,18.30
2023,05,15,05,36,18.20
2023,05,15,05,37,18.10
2023,05,15,05,38,18.00
2023,05,15,05,39,17.90
2023,05,15,05,40,17.90
2023,05,15,05,41,17.90
2023,05,15,05,42,17.90
2023,05,15,05,43,17.80
2023,05,15,05,44,17.80
2023,05,15,05,45,17.80
2023,05,15,05,46,17.80
2023,05,15,05,47,17.70
2023,05,15,05,48,17.70
2023,05,15,05,49,17.70
2023,05,15,05,50,17.70
2023,05,15,05,51,17.70
2023,05,15,05,52,17.70
2023,05,15,05,53,17.60
2023,05,15,05,54,17.60
2023,05,15,05,55,17.60
2023,05,15,05,56,17.70
2023,05,15,05,57,17.70
2023,05,15,05,58,17.70
2023,05,15,05,59,17.70
2023,05,15,06,00,17.80
2023,05,15,06,01,17.80
2023,05,15,06,02,17.80
2023,05,15,06,03,17.90
2023,05,15,06,04,17.80
2023,05,15,06,05,17.80
2023,05,15,06,06,17.70
2023,05,15,06,07,17.60
2023,05,15,06,08,17.50
2023,05,15,06,09,17.40
2023,05,15,06,10,17.50
2023,05,15,06,11,17.50
2023,05,15,06,12,17.60
2023,05,15,06,13,17.50
2023,05,15,06,14,17.40
2023,05,15,06,15,17.40
2023,05,15,06,16,17.40
2023,05,15,06,17,17.40
2023,05,15,06,18,17.40
2023,05,15,06,19,17.40
2023,05,15,06,20,17.50
2023,05,15,06,21,17.50
2023,05,15,06,22,17.60
2023,05,15,06,23,17.70
2023,05,15,06,24,17.80
2023,05,15,06,25,17.80
2023,05,15,06,26,17.90
2023,05,15,06,27,17.90
2023,05,15,06,28,18.00
2023,05,15,06,29,18.00
2023,05,15,06,30,18.10
2023,05,15,06,31,18.20
2023,05,15,06,32,18.20
2023,05,15,06,33,18.20
2023,05,15,06,34,18.20
2023,05,15,06,35,18.10
2023,05,15,06,36,18.00
2023,05,15,06,37,18.00
2023,05,15,06,38,17.90
2023,05,15,06,39,17.90
2023,05,15,06,40,17.80
2023,05,15,06,41,17.80
2023,05,15,06,42,17.80
2023,05,15,06,43,17.80
2023,05,15,06,44,17.80
2023,05,15,06,45,17.80
2023,05,15,06,46,17.70
2023,05,15,06,47,17.70
2023,05,15,06,48,17.70
2023,05,15,06,49,17.70
2023,05,15,06,50,17.70
2023,05,15,06,51,17.80
2023,05,15,06,52,17.80
2023,05,15,06,53,17.80
2023,05,15,06,54,17.80
2023,05,15,06,55,17.80
2023,05,15,06,56,17.80
2023,05,15,06,57,17.90
2023,05,15,06,58,17.90
2023,05,15,06,59,17.90
2023,05,15,07,00,17.90
2023,05,15,07,01,18.00
2023,05,15,07,02,18.00
2023,05,15,07,03,18.00
2023,05,15,07,04,18.10
2023,05,15,07,05,18.10
2023,05,15,07,06,18.10
2023,05,15,07,07,18.00
2023,05,15,07,08,18.00
2023,05,15,07,09,18.00
2023,05,15,07,10,18.00
2023,05,15,07,11,18.00
2023,05,15,07,12,17.90
2023,05,15,07,13,18.00
2023,05,15,07,14,18.00
2023,05,15,07,15,18.00
2023,05,15,07,16,18.00
2023,05,15,07,17,18.00
2023,05,15,07,18,18.00
2023,05,15,07,19,18.10
2023,05,15,07,20,18.00
2023,05,15,07,21,18.10
2023,05,15,07,22,18.10
2023,05,15,07,23,18.10
2023,05,15,07,24,18.10
2023,05,15,07,25,18.20
2023,05,15,07,26,18.20
2023,05,15,07,27,18.20
2023,05,15,07,28,18.20
2023,05,15,07,29,18.20
2023,05,15,07,30,18.30
2023,05,15,07,31,18.30
2023,05,15,07,32,18.30
2023,05,15,07,33,18.30
2023,05,15,07,34,18.30
2023,05,15,07,35,18.30
2023,05,15,07,36,18.30
2023,05,15,07,37,18.30
2023,05,15,07,38,18.30
2023,05,15,07,39,18.40
2023,05,15,07,40,18.30
2023,05,15,07,41,18.30
2023,05,15,07,42,18.30
2023,05,15,07,43,18.30
2023,05,15,07,44,18.20
2023,05,15,07,45,18.20
2023,05,15,07,46,18.20
2023,05,15,07,47,18.20
2023,05,15,07,48,18.30
2023,05,15,07,49,18.30
2023,05,15,07,50,18.30
2023,05,15,07,51,18.30
2023,05,15,07,52,18.30
2023,05,15,07,53,18.40
2023,05,15,07,54,18.40
2023,05,15,07,55,18.40
2023,05,15,07,56,18.40
2023,05,15,07,57,18.40
2023,05,15,07,58,18.40
2023,05,15,07,59,18.40
2023,05,15,08,00,18.40
2023,05,15,08,01,18.40
2023,05,15,08,02,18.40
2023,05,15,08,03,18.40
2023,05,15,08,04,18.40
2023,05,15,08,05,18.50
2023,05,15,08,06,18.50
2023,05,15,08,07,18.50
2023,05,15,08,08,18.60
2023,05,15,08,09,18.70
2023,05,15,08,10,18.70
2023,05,15,08,11,18.70
2023,05,15,08,12,18.80
2023,05,15,08,13,18.80
2023,05,15,08,14,18.80
2023,05,15,08,15,18.90
2023,05,15,08,16,19.00
2023,05,15,08,17,19.00
2023,05,15,08,18,19.10
2023,05,15,08,19,19.10
2023,05,15,08,20,19.10
2023,05,15,08,21,19.20
2023,05,15,08,22,19.30
2023,05,15,08,23,19.30
2023,05,15,08,24,19.30
2023,05,15,08,25,19.30
2023,05,15,08,26,19.40
2023,05,15,08,27,19.40
2023,05,15,08,28,19.50
2023,05,15,08,29,19.60
2023,05,15,08,30,19.60
2023,05,15,08,31,19.70
2023,05,15,08,32,19.70
2023,05,15,08,33,19.80
2023,05,15,08,34,19.80
2023,05,15,08,35,19.80
2023,05,15,08,36,19.90
2023,05,15,08,37,19.90
2023,05,15,08,38,19.90
2023,05,15,08,39,19.90
2023,05,15,08,40,20.00
2023,05,15,08,41,20.00
2023,05,15,08,42,20.10
2023,05,15,08,43,20.10
2023,05,15,08,44,20.10
2023,05,15,08,45,20.20
2023,05,15,08,46,20.30
2023,05,15,08,47,20.30
2023,05,15,08,48,20.40
2023,05,15,08,49,20.50
2023,05,15,08,50,20.60
2023,05,15,08,51,20.60
2023,05,15,08,52,20.70
2023,05,15,08,53,20.70
2023,05,15,08,54,20.80
2023,05,15,08,55,20.80
2023,05,15,08,56,20.80
2023,05,15,08,57,20.90
2023,05,15,08,58,20.90
2023,05,15,08,59,20.90
2023,05,15,09,00,20.90
2023,05,15,09,01,20.90
2023,05,15,09,02,20.90
2023,05,15,09,03,20.90
2023,05,15,09,04,20.90
2023,05,15,09,05,20.90
2023,05,15,09,06,21.00
2023,05,15,09,07,21.00
2023,05,15,09,08,21.10
2023,05,15,09,09,21.10
2023,05,15,09,10,21.20
2023,05,15,09,11,21.20
2023,05,15,09,12,21.30
2023,05,15,09,13,21.30
2023,05,15,09,14,21.30
2023,05,15,09,15,21.40
2023,05,15,09,16,21.50
2023,05,15,09,17,21.50
2023,05,15,09,18,21.60
2023,05,15,09,19,21.60
2023,05,15,09,20,21.60
2023,05,15,09,21,21.60
2023,05,15,09,22,21.60
2023,05,15,09,23,21.60
2023,05,15,09,24,21.70
2023,05,15,09,25,21.70
2023,05,15,09,26,21.70
2023,05,15,09,27,21.80
2023,05,15,09,28,21.80
2023,05,15,09,29,21.90
2023,05,15,09,30,21.90
2023,05,15,09,31,21.90
2023,05,15,09,32,21.90
2023,05,15,09,33,21.90
2023,05,15,09,34,21.90
2023,05,15,09,35,21.90
2023,05,15,09,36,22.00
2023,05,15,09,37,22.00
2023,05,15,09,38,22.00
2023,05,15,09,39,22.10
2023,05,15,09,40,22.10
2023,05,15,09,41,22.10
2023,05,15,09,42,22.10
2023,05,15,09,43,22.10
2023,05,15,09,44,22.10
2023,05,15,09,45,22.10
2023,05,15,09,46,22.20
2023,05,15,09,47,22.20
2023,05,15,09,48,22.20
2023,05,15,09,49,22.20
2023,05,15,09,50,22.20
2023,05,15,09,51,22.20
2023,05,15,09,52,22.20
2023,05,15,09,53,22.20
2023,05,15,09,54,22.30
2023,05,15,09,55,22.30
2023,05,15,09,56,22.40
2023,05,15,09,57,22.40
2023,05,15,09,58,22.50
2023,05,15,09,59,22.60
2023,05,15,10,00,22.70
2023,05,15,10,01,22.70
2023,05,15,10,02,22.80
2023,05,15,10,03,22.80
2023,05,15,10,04,22.80
2023,05,15,10,05,22.80
2023,05,15,10,06,22.90
2023,05,15,10,07,22.90
2023,05,15,10,08,22.90
2023,05,15,10,09,22.90
2023,05,15,10,10,23.00
2023,05,15,10,11,23.00
2023,05,15,10,12,23.10
2023,05,15,10,13,23.10
2023,05,15,10,14,23.10
2023,05,15,10,15,23.10
2023,05,15,10,16,23.20
2023,05,15,10,17,23.30
2023,05,15,10,18,23.40
2023,05,15,10,19,23.40
2023,05,15,10,20,23.50
2023,05,15,10,21,23.60
2023,05,15,10,22,23.60
2023,05,15,10,23,23.70
2023,05,15,10,24,23.70
2023,05,15,10,25,23.70
2023,05,15,10,26,23.80
2023,05,15,10,27,23.80
2023,05,15,10,28,23.80
2023,05,15,10,29,23.90
2023,05,15,10,30,23.90
2023,05,15,10,31,23.90
2023,05,15,10,32,23.90
2023,05,15,10,33,23.90
2023,05,15,10,34,23.90
2023,05,15,10,35,23.90
2023,05,15,10,36,23.90
2023,05,15,10,37,23.90
2023,05,15,10,38,23.90
2023,05,15,10,39,23.90
2023,05,15,10,40,23.90
2023,05,15,10,41,23.90
2023,05,15,10,42,24.00
2023,05,15,10,43,24.00
2023,05,15,10,44,24.10
2023,05,15,10,45,24.20
2023,05,15,10,46,24.20
2023,05,15,10,47,24.20
2023,05,15,10,48,24.20
2023,05,15,10,49,24.20
2023,05,15,10,50,24.30
2023,05,15,10,51,24.30
2023,05,15,10,52,24.40
2023,05,15,10,53,24.40
2023,05,15,10,54,24.40
2023,05,15,10,55,24.40
2023,05,15,10,56,24.40
2023,05,15,10,57,24.40
2023,05,15,10,58,24.40
2023,05,15,10,59,24.50
2023,05,15,11,00,24.50
2023,05,15,11,01,24.60
2023,05,15,11,02,24.70
2023,05,15,11,03,24.80
2023,05,15,11,04,24.90
2023,05,15,11,05,25.00
2023,05,15,11,06,25.10
2023,05,15,11,07,25.20
2023,05,15,11,08,25.20
2023,05,15,11,09,25.30
2023,05,15,11,10,25.30
2023,05,15,11,11,25.30
2023,05,15,11,12,25.30
2023,05,15,11,13,25.40
2023,05,15,11,14,25.50
2023,05,15,11,15,25.50
2023,05,15,11,16,25.60
2023,05,15,11,17,25.50
2023,05,15,11,18,25.50
2023,05,15,11,19,25.50
2023,05,15,11,20,25.60
2023,05,15,11,21,25.60
2023,05,15,11,22,25.60
2023,05,15,11,23,25.70
2023,05,15,11,24,25.70
2023,05,15,11,25,25.70
2023,05,15,11,26,25.80
2023,05,15,11,27,25.80
2023,05,15,11,28,25.90
2023,05,15,11,29,26.10
2023,05,15,11,30,26.20
2023,05,15,11,31,26.30
2023,05,15,11,32,26.50
2023,05,15,11,33,26.60
2023,05,15,11,34,26.70
2023,05,15,11,35,26.80
2023,05,15,11,36,26.90
2023,05,15,11,37,27.00
2023,05,15,11,38,27.00
2023,05,15,11,39,27.00
2023,05,15,11,40,27.00
2023,05,15,11,41,26.90
2023,05,15,11,42,26.90
2023,05,15,11,43,26.90
2023,05,15,11,44,26.90
2023,05,15,11,45,26.90
2023,05,15,11,46,26.90
2023,05,15,11,47,26.80
2023,05,15,11,48,26.90
2023,05,15,11,49,26.90
2023,05,15,11,50,27.00
2023,05,15,11,51,27.10
2023,05,15,11,52,27.10
2023,05,15,11,53,27.20
2023,05,15,11,54,27.20
2023,05,15,11,55,27.30
2023,05,15,11,56,27.30
2023,05,15,11,57,27.30
2023,05,15,11,58,27.30
2023,05,15,11,59,27.30
2023,05,15,12,00,27.20
2023,05,15,12,01,27.20
2023,05,15,12,02,27.10
2023,05,15,12,03,27.00
2023,05,15,12,04,26.90
2023,05,15,12,05,26.90
2023,05,15,12,06,27.00
2023,05,15,12,07,27.10
2023,05,15,12,08,27.10
2023,05,15,12,09,27.20
2023,05,15,12,10,27.30
2023,05,15,12,11,27.40
2023,05,15,12,12,27.40
2023,05,15,12,13,27.30
2023,05,15,12,14,27.30
2023,05,15,12,15,27.30
2023,05,15,12,16,27.40
2023,05,15,12,17,27.50
2023,05,15,12,18,27.60
2023,05,15,12,19,27.60
2023,05,15,12,20,27.60
2023,05,15,12,21,27.60
2023,05,15,12,22,27.70
2023,05,15,12,23,27.70
2023,05,15,12,24,27.70
2023,05,15,12,25,27.70
2023,05,15,12,26,27.70
2023,05,15,12,27,27.70
2023,05,15,12,28,27.70
2023,05,15,12,29,27.60
2023,05,15,12,30,27.60
2023,05,15,12,31,27.80
2023,05,15,12,32,27.80
2023,05,15,12,33,27.90
2023,05,15,12,34,27.90
2023,05,15,12,35,27.90
2023,05,15,12,36,27.90
2023,05,15,12,37,27.80
2023,05,15,12,38,27.80
2023,05,15,12,39,27.90
2023,05,15,12,40,28.00
2023,05,15,12,41,28.10
2023,05,15,12,42,28.30
2023,05,15,12,43,28.50
2023,05,15,12,44,28.60
2023,05,15,12,45,28.70
2023,05,15,12,46,28.80
2023,05,15,12,47,28.80
2023,05,15,12,48,28.90
2023,05,15,12,49,28.90
2023,05,15,12,50,28.90
2023,05,15,12,51,29.00
2023,05,15,12,52,28.90
2023,05,15,12,53,28.90
2023,05,15,12,54,29.00
2023,05,15,12,55,29.10
2023,05,15,12,56,29.20
2023,05,15,12,57,29.30
2023,05,15,12,58,29.30
2023,05,15,12,59,29.30
2023,05,15,13,00,29.30
2023,05,15,13,01,29.30
2023,05,15,13,02,29.30
2023,05,15,13,03,29.40
2023,05,15,13,04,29.40
2023,05,15,13,05,29.40
2023,05,15,13,06,29.40
2023,05,15,13,07,29.50
2023,05,15,13,08,29.50
2023,05,15,13,09,29.50
2023,05,15,13,10,29.50
2023,05,15,13,11,29.50
2023,05,15,13,12,29.50
2023,05,15,13,13,29.40
2023,05,15,13,14,29.50
2023,05,15,13,15,29.60
2023,05,15,13,16,29.60
2023,05,15,13,17,29.60
2023,05,15,13,18,29.60
2023,05,15,13,19,29.70
2023,05,15,13,20,29.80
2023,05,15,13,21,29.90
2023,05,15,13,22,29.90
2023,05,15,13,23,30.00
2023,05,15,13,24,30.10
2023,05,15,13,25,30.10
2023,05,15,13,26,30.10
2023,05,15,13,27,30.00
2023,05,15,13,28,29.90
2023,05,15,13,29,29.90
2023,05,15,13,30,29.90
2023,05,15,13,31,29.90
2023,05,15,13,32,29.90
2023,05,15,13,33,29.80
2023,05,15,13,34,29.90
2023,05,15,13,35,29.90
2023,05,15,13,36,30.00
2023,05,15,13,37,30.10
2023,05,15,13,38,30.20
2023,05,15,13,39,30.30
2023,05,15,13,40,30.30
2023,05,15,13,41,30.40
2023,05,15,13,42,30.30
2023,05,15,13,43,30.30
2023,05,15,13,44,30.40
2023,05,15,13,45,30.40
2023,05,15,13,46,30.50
2023,05,15,13,47,30.60
2023,05,15,13,48,30.60
2023,05,15,13,49,30.60
2023,05,15,13,50,30.60
2023,05,15,13,51,30.60
2023,05,15,13,52,30.60
2023,05,15,13,53,30.70
2023,05,15,13,54,30.70
2023,05,15,13,55,30.80
2023,05,15,13,56,30.80
2023,05,15,13,57,30.90
2023,05,15,13,58,30.90
2023,05,15,13,59,30.90
2023,05,15,14,00,30.90
2023,05,15,14,01,30.90
2023,05,15,14,02,30.90
2023,05,15,14,03,30.90
2023,05,15,14,04,30.90
2023,05,15,14,05,30.90
2023,05,15,14,06,30.90
2023,05,15,14,07,30.90
2023,05,15,14,08,30.90
2023,05,15,14,09,30.80
2023,05,15,14,10,30.80
2023,05,15,14,11,30.70
2023,05,15,14,12,30.70
2023,05,15,14,13,30.70
2023,05,15,14,14,30.60
2023,05,15,14,15,30.50
2023,05,15,14,16,30.50
2023,05,15,14,17,30.40
2023,05,15,14,18,30.40
2023,05,15,14,19,30.40
2023,05,15,14,20,30.40
2023,05,15,14,21,30.40
2023,05,15,14,22,30.40
2023,05,15,14,23,30.40
2023,05,15,14,24,30.40
2023,05,15,14,25,30.40
2023,05,15,14,26,30.50
2023,05,15,14,27,30.50
2023,05,15,14,28,30.50
2023,05,15,14,29,30.50
2023,05,15,14,30,30.50
2023,05,15,14,31,30.50
2023,05,15,14,32,30.60
2023,05,15,14,33,30.70
2023,05,15,14,34,30.80
2023,05,15,14,35,30.90
2023,05,15,14,36,31.00
2023,05,15,14,37,31.00
2023,05,15,14,38,31.00
2023,05,15,14,39,30.90
2023,05,15,14,40,30.90
2023,05,15,14,41,30.90
2023,05,15,14,42,30.80
2023,05,15,14,43,30.70
2023,05,15,14,44,30.50
2023,05,15,14,45,30.40
2023,05,15,14,46,30.30
2023,05,15,14,47,30.30
2023,05,15,14,48,30.30
2023,05,15,14,49,30.40
2023,05,15,14,50,30.40
2023,05,15,14,51,30.40
2023,05,15,14,52,30.50
2023,05,15,14,53,30.60
2023,05,15,14,54,30.70
2023,05,15,14,55,30.70
2023,05,15,14,56,30.80
2023,05,15,14,57,30.80
2023,05,15,14,58,30.80
2023,05,15,14,59,30.90
2023,05,15,15,00,30.90
2023,05,15,15,01,30.90
2023,05,15,15,02,30.90
2023,05,15,15,03,30.80
2023,05,15,15,04,30.90
2023,05,15,15,05,31.00
2023,05,15,15,06,31.10
2023,05,15,15,07,31.00
2023,05,15,15,08,31.00
2023,05,15,15,09,30.90
2023,05,15,15,10,30.80
2023,05,15,15,11,30.80
2023,05,15,15,12,30.80
2023,05,15,15,13,30.80
2023,05,15,15,14,30.60
2023,05,15,15,15,30.60
2023,05,15,15,16,30.60
2023,05,15,15,17,30.50
2023,05,15,15,18,30.40
2023,05,15,15,19,30.40
2023,05,15,15,20,30.40
2023,05,15,15,21,30.40
2023,05,15,15,22,30.40
2023,05,15,15,23,30.30
2023,05,15,15,24,30.30
2023,05,15,15,25,30.30
2023,05,15,15,26,30.20
2023,05,15,15,27,30.20
2023,05,15,15,28,30.10
2023,05,15,15,29,30.10
2023,05,15,15,30,30.10
2023,05,15,15,31,30.10
2023,05,15,15,32,30.10
2023,05,15,15,33,30.00
2023,05,15,15,34,30.10
2023,05,15,15,35,30.10
2023,05,15,15,36,30.10
2023,05,15,15,37,30.20
2023,05,15,15,38,30.30
2023,05,15,15,39,30.30
2023,05,15,15,40,30.40
2023,05,15,15,41,30.50
2023,05,15,15,42,30.50
2023,05,15,15,43,30.50
2023,05,15,15,44,30.40
2023,05,15,15,45,30.40
2023,05,15,15,46,30.30
2023,05,15,15,47,30.30
2023,05,15,15,48,30.30
2023,05,15,15,49,30.30
2023,05,15,15,50,30.40
2023,05,15,15,51,30.40
2023,05,15,15,52,30.50
2023,05,15,15,53,30.50
2023,05,15,15,54,30.60
2023,05,15,15,55,30.70
2023,05,15,15,56,30.70
2023,05,15,15,57,30.60
2023,05,15,15,58,30.60
2023,05,15,15,59,30.60
2023,05,15,16,00,30.60
2023,05,15,16,01,30.60
2023,05,15,16,02,30.60
2023,05,15,16,03,30.60
2023,05,15,16,04,30.60
2023,05,15,16,05,30.60
2023,05,15,16,06,30.50
2023,05,15,16,07,30.40
2023,05,15,16,08,30.30
2023,05,15,16,09,30.30
2023,05,15,16,10,30.30
2023,05,15,16,11,30.40
2023,05,15,16,12,30.50
2023,05,15,16,13,30.60
2023,05,15,16,14,30.60
2023,05,15,16,15,30.50
2023,05,15,16,16,30.40
2023,05,15,16,17,30.40
2023,05,15,16,18,30.40
2023,05,15,16,19,30.50
2023,05,15,16,20,30.50
2023,05,15,16,21,30.40
2023,05,15,16,22,30.30
2023,05,15,16,23,30.30
2023,05,15,16,24,30.20
2023,05,15,16,25,30.20
2023,05,15,16,26,30.10
2023,05,15,16,27,30.10
2023,05,15,16,28,30.10
2023,05,15,16,29,30.10
2023,05,15,16,30,30.10
2023,05,15,16,31,30.10
2023,05,15,16,32,30.10
2023,05,15,16,33,30.10
2023,05,15,16,34,30.10
2023,05,15,16,35,30.20
2023,05,15,16,36,30.30
2023,05,15,16,37,30.30
2023,05,15,16,38,30.30
2023,05,15,16,39,30.40
2023,05,15,16,40,30.40
2023,05,15,16,41,30.50
2023,05,15,16,42,30.60
2023,05,15,16,43,30.80
2023,05,15,16,44,30.80
2023,05,15,16,45,30.80
2023,05,15,16,46,30.80
2023,05,15,16,47,30.80
2023,05,15,16,48,30.80
2023,05,15,16,49,30.80
2023,05,15,16,50,30.80
2023,05,15,16,51,30.70
2023,05,15,16,52,30.60
2023,05,15,16,53,30.50
2023,05,15,16,54,30.50
2023,05,15,16,55,30.50
2023,05,15,16,56,30.50
2023,05,15,16,57,30.50
2023,05,15,16,58,30.40
2023,05,15,16,59,30.30
2023,05,15,17,00,30.30
2023,05,15,17,01,30.30
2023,05,15,17,02,30.30
2023,05,15,17,03,30.30
2023,05,15,17,04,30.30
2023,05,15,17,05,30.30
2023,05,15,17,06,30.20
2023,05,15,17,07,30.20
2023,05,15,17,08,30.20
2023,05,15,17,09,30.20
2023,05,15,17,10,30.30
2023,05,15,17,11,30.30
2023,05,15,17,12,30.30
2023,05,15,17,13,30.30
2023,05,15,17,14,30.30
2023,05,15,17,15,30.30
2023,05,15,17,16,30.30
2023,05,15,17,17,30.40
2023,05,15,17,18,30.40
2023,05,15,17,19,30.50